Overview Statistics Trail Chart Weather Telemetry Raw packets
 

This is the latest recevied weather packets stored in our database for station/object KF6RAL-6. If no packets are shown the sender has not sent any weather packets the latest 10 day(s).

<< 12 13 14 15 16 17 18 >>
Time Temp. Humidity Pressure Rain* Wind** Luminosity Snow
1788566248 31.67° C 17% 1008.2 hPa 0 mm - - -
1788565827 31.67° C 17% 1008 hPa 0 mm - - -
1788565406 31.67° C 16% 1008 hPa 0 mm - - -
1788564986 31.67° C 17% 1008.1 hPa 0 mm - - -
1788564564 31.67° C 17% 1008 hPa 0 mm - - -
1788564143 31.67° C 17% 1008.2 hPa 0 mm - - -
1788563723 31.67° C 16% 1008.4 hPa 0 mm - - -
1788563301 31.67° C 16% 1008 hPa 0 mm - - -
1788562460 32.22° C 15% 1008.3 hPa 0 mm - - -
1788562038 32.22° C 15% 1008.4 hPa 0 mm - - -
1788561617 32.22° C 16% 1008.6 hPa 0 mm - - -
1788561196 31.67° C 15% 1008.6 hPa 0 mm - - -
1788560775 31.67° C 17% 1008.5 hPa 0 mm - - -
1788560355 31.11° C 16% 1009.1 hPa 0 mm - - -
1788559933 31.67° C 16% 1008.8 hPa 0 mm - - -
1788559512 31.67° C 16% 1008.9 hPa 0 mm - - -
1788559092 31.67° C 16% 1008.8 hPa 0 mm - - -
1788558671 31.67° C 16% 1009.3 hPa 0 mm - - -
1788558249 31.11° C 16% 1009.5 hPa 0 mm - - -
1788557828 30.56° C 16% 1009.5 hPa 0 mm - - -
1788557407 31.11° C 16% 1009.5 hPa 0 mm - - -
1788556986 30.56° C 17% 1009.4 hPa 0 mm - - -
1788556565 30.56° C 18% 1009.6 hPa 0 mm - - -
1788556144 30.56° C 17% 1009.3 hPa 0 mm - - -
1788555723 30° C 16% 1010.2 hPa 0 mm - - -

* Rain latest hour (hover to see other rain measurements)
** Current wind speed in m/s (hover to see current wind gust speed)